Погода в Карсаве

Латвия     56°46′59″N   27°41′02″E
темп.,
°C
ветер,
м/с
пор.,
м/с
влажн.,
%
обл.,
%
осадки,
мм/ч
давл.,
гПа
погр.,
м
27 сентября, пн
пн2700:00+5с24940 0.0 102663
03:00+4с22960 0.0 102740
06:00+4ссв23965 0.0 102849
09:00+6ссв24885 0.0 1029177
12:00+12св34696 0.0 1029719
15:00+14св345715 0.0 10281297
18:00+12св2568100 0.0 1028134
21:00+9св358189 0.0 1029117
28 сентября, вт
вт2800:00+7всв34935 0.0 103077
03:00+6всв22945 0.0 103032
06:00+5св23955 0.0 103145
09:00+7всв24865 0.0 1031171
12:00+12всв35645 0.0 1031774
15:00+14всв345586 0.0 10311502
18:00+11в3669100 0.0 1032178
21:00+9вюв2679100 0.0 1033247
29 сентября, ср
ср2900:00+9вюв2578100 0.0 1034183
03:00+9вюв2677100 0.0 1034196
06:00+8юв2686100 0.0 1035237
09:00+8юв3683100 0.0 1035333
12:00+11юв456540 0.0 1035723
15:00+12ююв4556100 0.0 10341248
18:00+10ююв366114 0.0 1034394
21:00+6юв33775 0.0 103448
30 сентября, чт
чт3000:00+4юв36845 0.0 103595
03:00+3юв36895 0.0 1035105
06:00+2юв37920 0.0 1034125
09:00+5ююв38785 0.0 1034252
12:00+10ююв57575 0.0 1034917
15:00+12ююв57505 0.0 10321276
18:00+10ююв38635 0.0 1031242
21:00+6ююв310825 0.0 1032193
1 октября, пт
пт100:00+5ююв310885 0.0 1032211
03:00+4ююв3109284 0.0 1031196
06:00+5ююв41187100 0.0 1031239
09:00+7ююв41073100 0.0 1031319
12:00+9ююв4970100 0.0 1031405
15:00+12ю4861100 0.0 1030636
18:00+10ююв397165 0.0 1029508
21:00+6ю37905 0.0 1030158